Location: Bosdarros
(43.2167°N, 0.3667°W)
Time: 15:33:28
(UTC+00:00)

MINOTAUR IV R/B - Pass Details

Date: 22 April 2021
Orbit: 623 x 640 km, 72.0° (Epoch: 22 April)

Event Time Altitude Azimuth Distance (km) Brightness Sun altitude
Rises 21:06:31 0° 336° (NNW) 2,925 9.2 -21.7°
Reaches altitude 10° 21:08:47 10° 336° (NNW) 2,015 8.1 -22.0°
Maximum altitude 21:13:19 88° 246° (WSW) 638 4.5 -22.6°
Enters shadow 21:13:51 69° 165° (SSE) 677 4.5 -22.6°
